Regional Weather Roundup
Issued by NWS

Home | Current Version | Previous Version | Graphics & Text | Print | Product List | Glossary On
Versions: 1 2 3 4 5 6 7 8 9 10 11 12 13 14 15 16 17 18 19 20 21 22 23 24 25 26 27 28 29 30 31 32 33 34 35 36 37 38 39 40 41 42 43 44 45 46 47 48 49 50
000
ASUS43 KOAX 032010
RWRNE

WEATHER ROUNDUP FOR NEBRASKA
NATIONAL WEATHER SERVICE OMAHA NE
300 PM CDT TUE MAY 03 2016

NOTES: SATELLITE DATA IS BEING USED TO AUGMENT CLOUD COVER ABOVE
       12000 FEET.
       "FAIR" INDICATES FEW OR NO CLOUDS BELOW 12,000 FEET WITH NO
       SIGNIFICANT WEATHER AND/OR OBSTRUCTIONS TO VISIBILITY.

  * THESE STATIONS DO NOT REPORT WEATHER SUCH AS RAIN...SNOW OR FOG.

NEZ001>004-019>022-054>056-032100-
NEBRASKA PANHANDLE

CITY           SKY/WX    TMP DP  RH WIND       PRES   REMARKS
SCOTTSBLUFF    SUNNY     71  33  24 N20       30.12F
ALLIANCE       SUNNY     67  30  25 N18       30.11S
CHADRON        SUNNY     71  35  26 N8        30.10F
KIMBALL        MOSUNNY   65  34  30 N18G28    30.16F
SIDNEY         SUNNY     68  35  29 N15       30.14F
$$

NEZ057>060-069>072-079>082-032100-
SOUTHWEST NEBRASKA

CITY           SKY/WX    TMP DP  RH WIND       PRES   REMARKS
NORTH PLATTE   SUNNY     66  42  41 VRB5      30.07F
IMPERIAL       SUNNY     65  38  36 N14       30.10F
LEXINGTON      MOSUNNY   65  42  43 N6        30.06S
MCCOOK         MOSUNNY   65  45  48 NW9       30.08F
OGALLALA       SUNNY     65  34  30 NW6G18    30.10F
$$

NEZ005>010-023>029-035>040-094-032100-
NORTH CENTRAL NEBRASKA

CITY           SKY/WX    TMP DP  RH WIND       PRES   REMARKS
VALENTINE      SUNNY     68  36  30 NW13      30.04F
AINSWORTH      SUNNY     66  39  37 NW13G21   30.04S
BROKEN BOW     MOSUNNY   65  42  43 W14       30.05F
O`NEILL        MOSUNNY   68  41  37 W13       30.01F
ORD            MOSUNNY   66  42  41 NW12      30.02F
THEDFORD       SUNNY     67  40  37 N9        30.07S
$$

NEZ041-046>049-061>064-073>077-083>087-032100-
SOUTH CENTRAL NEBRASKA

CITY           SKY/WX    TMP DP  RH WIND       PRES   REMARKS
GRAND ISLAND   MOSUNNY   67  38  34 W6        30.04F
AURORA         SUNNY     66  38  35 W5        30.03F
HASTINGS       MOSUNNY   66  38  35 N8        30.03F
HEBRON           N/A    N/A N/A N/A MISG        N/A
HOLDREGE       MOSUNNY   65  40  40 CALM      30.05F
KEARNEY *      SUNNY     64  39  39 NW5       30.06F
YORK           SUNNY     66  39  37 NW6       30.03F
$$

NEZ011>018-030>034-042>045-032100-
NORTHEAST NEBRASKA

CITY           SKY/WX    TMP DP  RH WIND       PRES   REMARKS
NORFOLK        SUNNY     68  40  35 W18G26    29.98F
ALBION         PTSUNNY   67  40  38 NW9G20    30.01S
BLAIR          PTSUNNY   68  42  38 W15G21    29.98F
COLUMBUS *     MOSUNNY   70  41  35 W14       30.01F
FREMONT        PTSUNNY   68  42  38 W9        29.99F
TEKAMAH        PTSUNNY   68  42  38 W16       29.96F
WAYNE          MOSUNNY   68  44  42 W15G23    29.98F
$$

NEZ050>053-065>068-078-088>093-032100-
SOUTHEAST NEBRASKA

CITY           SKY/WX    TMP DP  RH WIND       PRES   REMARKS
LINCOLN        MOSUNNY   68  40  35 SW6       30.01F
OMAHA EPPLEY   PTSUNNY   70  41  34 W13       29.98F
BEATRICE       SUNNY     67  40  36 W8        30.02F
FALLS CITY     MOSUNNY   68  43  40 W10G18    30.00F
NEBRASKA CITY  MOSUNNY   67  39  36 NW12      30.01S
PLATTSMOUTH    PTSUNNY   69  41  36 W9        30.00F
$$

NEZ044-045-051>053-067-032100-
OMAHA AREA

CITY           SKY/WX    TMP DP  RH WIND       PRES   REMARKS
OMAHA EPPLEY   PTSUNNY   70  41  34 W13       29.98F
BLAIR          PTSUNNY   68  42  38 W15G21    29.98F
FREMONT        PTSUNNY   68  42  38 W9        29.99F
MILLARD        MOSUNNY   68  41  36 W13       29.98F
OFFUTT AFB     MOSUNNY   69  44  40 W12       29.98F
PLATTSMOUTH    PTSUNNY   69  41  36 W9        30.00F
WAHOO          MOCLDY    69  40  34 W13       29.99F
$$




USA.gov is the U.S. government's official web portal to all federal, state and local government web resources and services.